Current weather by "City, St" or "zip code"  
 

Current Conditions: Sonny Callahan Airport, AL

Fair


61.0 F

Last Updated on Oct 29 2020, 7:55 pm CDT
Humidity: 52%
Wind Speed: NW 6.9 G 16.1 mph
Barometer 29.96 in
Dewpoint: 42.8 F
Visibility: 10.00 mi
Precip: --
Heat Index: NA
Wind Chill: 60 F
Current conditions at:

Sonny Callahan Airport, AL (KCQF)

Lat: 30.461 Lon: 87.877

Local Radar Image active severe weather and emergency alerts image image weather storm and storm spotter reports image weather observation monitoring service image
Local
Radar
Active
Alerts
Storm Reports Obs
Monitoring

Sign-up For Email & Text Message Weather Alert Notification Services



Advertise Here

Observation History for Sonny Callahan Airport, AL


Time Wind
(mph)
Vis
(mi)
Weather Precip (in) Temperature (F) Relative
Humidity
Wind
Chill
(F)
Heat
Index
(F)
Pressure
Air Dwpt altimeter
(in)
sea level
(mb)
Rmks
7:55 pm CDT NW 6.9 G 16.1 10.00 Fair -- 61.0 42.8 52% 60 NA 29.96 M
7:35 pm CDT NW 9.2 10.00 Fair -- 61.0 42.8 52% 60 NA 29.95 M
6:55 pm CDT NW 4.6 10.00 Fair -- 63.0 44.6 52% 64 NA 29.92 M
6:35 pm CDT W 5.8 10.00 Fair -- 63.0 44.6 52% 63 NA 29.91 M
5:55 pm CDT W 5.8 10.00 Fair -- 64.0 42.8 46% NA NA 29.88 M
4:55 pm CDT W 6.9 10.00 Fair -- 68.0 44.6 43% NA NA 29.86 M
3:55 pm CDT W 8.1 G 16.1 10.00 Fair -- 68.0 44.6 43% NA NA 29.84 M
2:55 pm CDT W 12.7 G 21.9 10.00 Fair -- 68.0 42.8 40% NA NA 29.83 M
1:55 pm CDT W 12.7 G 19.6 10.00 Fair -- 70.0 44.6 40% NA NA 29.83 M
12:55 pm CDT W 10.4 G 20.7 10.00 Fair -- 72.0 48.2 44% NA NA 29.84 M
11:55 am CDT W 9.2 G 18.4 10.00 Fair -- 73.0 51.8 47% NA NA 29.85 M
10:55 am CDT W 8.1 G 16.1 10.00 Fair -- 72.0 59.0 65% NA NA 29.86 M
10:35 am CDT W 9.2 G 17.3 10.00 Fair -- 72.0 59.0 65% NA NA 29.86 M
9:55 am CDT SW 12.7 G 18.4 10.00 Partly Cloudy -- 72.0 62.6 73% NA NA 29.85 M
8:55 am CDT W 8.1 G 19.6 10.00 Overcast -- 72.0 68.0 88% NA NA 29.83 M
7:55 am CDT SW 12.7 G 20.7 10.00 Overcast -- 73.0 68.0 83% NA NA 29.81 M
6:55 am CDT SW 11.5 G 20.7 10.00 Overcast -- 73.0 69.8 89% NA NA 29.79 M
5:55 am CDT SW 10.4 G 19.6 10.00 Overcast -- 75.0 71.6 89% NA NA 29.78 M
4:55 am CDT SW 5.8 10.00 Overcast -- 75.0 71.6 89% NA NA 29.76 M
3:55 am CDT SW 10.4 10.00 Mostly Cloudy -- 75.0 71.6 89% NA NA 29.75 M
2:55 am CDT SW 8.1 G 16.1 10.00 Overcast -- 77.0 73.4 89% NA NA 29.75 M
1:15 am CDT SW 9.2 G 21.9 10.00 Overcast -- 77.0 71.6 83% NA NA 29.75 M
1:35 am CDT SW 12.7 G 20.7 10.00 Overcast -- 77.0 71.6 83% NA NA 29.75 M
12:55 am CDT SW 12.7 G 23.0 10.00 Overcast -- 77.0 71.6 83% NA NA 29.74 M

Regional Weather Observation


Mobile, Mobile Regional Airport, AL (KMOB)

Fair
57.0 F

Sonny Callahan Airport, AL (KCQF)

Fair
61.0 F

Moss Point - Trent Lott International Airport, MS (KPQL)

Fair
61.0 F

Jack Edwards Airport, AL (KJKA)

Heavy Rain
74.0 F

Keesler Air Force Base / Biloxi, MS (KBIX)

Fair
61.0 F

Pensacola Naval Air Station, FL (KNPA)

Fair
63.0 F